When you browse on this site, cookies collect data to enhance your experience and personalize the content and advertising you see.
Visit our Privacy Policy to learn more. By continuing to use the site, you agree to this use of cookies and data.
  • In Hungary
  • List of Countries
  • For 7 days
  • Water Temperature
  • Weather Map
  • News
  • Weather Widgets
  • user-avatar
    Login

    Hourly Weather Yutaza

    Today, 21 October, Monday

    Time Temperature Precipitation Wind Pressure Humidity
    00:00 0°C° 0 mm 5 mps 758 mmHg 82%
    01:00 0°C° 0 mm 5 mps 758 mmHg 82%
    02:00 +1°C° 0 mm 5 mps 758 mmHg 81%
    03:00 +1°C° 0 mm 5 mps 758 mmHg 81%
    04:00 +1°C° 0 mm 6 mps 758 mmHg 80%
    05:00 +1°C° 0.1 mm 6 mps 758 mmHg 81%
    06:00 +2°C° 0.1 mm 6 mps 757 mmHg 81%
    07:00 +2°C° 0.1 mm 6 mps 757 mmHg 82%
    08:00 +2°C° 0.3 mm 6 mps 757 mmHg 83%
    09:00 +2°C° 0.3 mm 7 mps 757 mmHg 85%
    10:00 +3°C° 0.3 mm 7 mps 757 mmHg 87%
    11:00 +3°C° 0.2 mm 7 mps 756 mmHg 87%
    12:00 +3°C° 0.2 mm 7 mps 756 mmHg 87%
    13:00 +4°C° 0.2 mm 7 mps 756 mmHg 87%
    14:00 +4°C° 0.1 mm 7 mps 756 mmHg 86%
    15:00 +5°C° 0.1 mm 6 mps 755 mmHg 85%
    16:00 +7°C° 0.1 mm 6 mps 755 mmHg 84%
    17:00 +7°C° 0 mm 6 mps 755 mmHg 84%
    18:00 +7°C° 0 mm 6 mps 754 mmHg 85%
    19:00 +7°C° 0 mm 6 mps 754 mmHg 85%
    20:00 +6°C° 0 mm 7 mps 753 mmHg 85%
    21:00 +6°C° 0 mm 7 mps 753 mmHg 85%
    22:00 +5°C° 0 mm 8 mps 752 mmHg 85%
    23:00 +6°C° 0 mm 8 mps 752 mmHg 84%

    Tomorrow, 22 October, Tuesday

    Time Temperature Precipitation Wind Pressure Humidity
    00:00 +6°C° 0 mm 8 mps 751 mmHg 84%
    01:00 +6°C° 0 mm 9 mps 750 mmHg 83%
    02:00 +6°C° 0 mm 9 mps 750 mmHg 84%
    03:00 +6°C° 0 mm 9 mps 749 mmHg 84%
    04:00 +6°C° 0 mm 9 mps 749 mmHg 84%
    05:00 +6°C° 1 mm 8 mps 749 mmHg 87%
    06:00 +6°C° 1 mm 8 mps 749 mmHg 89%
    07:00 +6°C° 1 mm 7 mps 748 mmHg 92%
    08:00 +7°C° 0.4 mm 6 mps 749 mmHg 92%
    09:00 +8°C° 0.4 mm 5 mps 749 mmHg 93%
    10:00 +9°C° 0.4 mm 3 mps 749 mmHg 93%
    11:00 +10°C° 0 mm 3 mps 749 mmHg 87%
    12:00 +11°C° 0 mm 3 mps 750 mmHg 81%
    13:00 +11°C° 0 mm 3 mps 750 mmHg 75%
    14:00 +11°C° 0 mm 3 mps 750 mmHg 76%
    15:00 +11°C° 0 mm 3 mps 750 mmHg 77%
    16:00 +10°C° 0 mm 3 mps 750 mmHg 79%
    17:00 +10°C° 0 mm 3 mps 750 mmHg 79%
    18:00 +9°C° 0 mm 3 mps 750 mmHg 79%
    19:00 +8°C° 0 mm 3 mps 751 mmHg 79%
    20:00 +7°C° 0 mm 3 mps 751 mmHg 78%
    21:00 +7°C° 0 mm 3 mps 751 mmHg 78%
    22:00 +6°C° 0 mm 2 mps 751 mmHg 78%
    23:00 +6°C° 0 mm 2 mps 751 mmHg 79%

    Day after tomorrow, 23 October, Wednesday

    Time Temperature Precipitation Wind Pressure Humidity
    00:00 +5°C° 0 mm 2 mps 751 mmHg 81%
    01:00 +4°C° 0 mm 2 mps 751 mmHg 82%
    02:00 +4°C° 0 mm 2 mps 752 mmHg 83%
    03:00 +4°C° 0 mm 1 mps 752 mmHg 84%
    04:00 +4°C° 0 mm 1 mps 752 mmHg 85%
    05:00 +3°C° 0 mm 1 mps 752 mmHg 86%
    06:00 +3°C° 0 mm 1 mps 752 mmHg 87%
    07:00 +3°C° 0 mm 1 mps 752 mmHg 88%
    08:00 +4°C° 0 mm 1 mps 752 mmHg 83%
    09:00 +3°C° 0 mm 2 mps 752 mmHg 79%
    10:00 +4°C° 0 mm 2 mps 752 mmHg 74%
    11:00 +4°C° 0 mm 3 mps 752 mmHg 72%
    12:00 +4°C° 0 mm 3 mps 752 mmHg 70%
    13:00 +5°C° 0 mm 4 mps 752 mmHg 68%
    14:00 +5°C° 0 mm 4 mps 751 mmHg 70%
    15:00 +5°C° 0 mm 4 mps 751 mmHg 72%
    16:00 +5°C° 0 mm 5 mps 750 mmHg 73%
    17:00 +5°C° 0 mm 5 mps 750 mmHg 77%
    18:00 +3°C° 0 mm 5 mps 750 mmHg 80%
    19:00 +3°C° 0 mm 5 mps 749 mmHg 83%
    20:00 +4°C° 0.3 mm 6 mps 749 mmHg 84%
    21:00 +4°C° 0.3 mm 6 mps 749 mmHg 86%
    22:00 +4°C° 0.3 mm 6 mps 749 mmHg 87%
    23:00 +5°C° 0 mm 6 mps 748 mmHg 89%

    24 October, Thursday

    Time Temperature Precipitation Wind Pressure Humidity
    00:00 +5°C° 0 mm 6 mps 748 mmHg 90%
    01:00 +5°C° 0 mm 6 mps 748 mmHg 92%
    02:00 +7°C° 0 mm 5 mps 748 mmHg 93%
    03:00 +7°C° 0 mm 5 mps 748 mmHg 94%
    04:00 +7°C° 0 mm 5 mps 748 mmHg 94%
    05:00 +7°C° 0 mm 4 mps 748 mmHg 95%
    06:00 +7°C° 0 mm 4 mps 748 mmHg 95%
    07:00 +7°C° 0 mm 4 mps 748 mmHg 95%
    08:00 +7°C° 0 mm 4 mps 749 mmHg 93%
    09:00 +8°C° 0 mm 4 mps 749 mmHg 90%
    10:00 +9°C° 0 mm 3 mps 749 mmHg 87%
    11:00 +10°C° 0 mm 4 mps 749 mmHg 83%
    12:00 +11°C° 0 mm 4 mps 750 mmHg 79%
    13:00 +11°C° 0 mm 4 mps 750 mmHg 76%
    14:00 +11°C° 0 mm 3 mps 750 mmHg 77%
    15:00 +10°C° 0 mm 3 mps 750 mmHg 78%
    16:00 +10°C° 0 mm 3 mps 750 mmHg 80%
    17:00 +9°C° 0 mm 2 mps 751 mmHg 81%
    18:00 +9°C° 0 mm 2 mps 751 mmHg 82%
    19:00 +9°C° 0 mm 2 mps 751 mmHg 83%
    20:00 +9°C° 0 mm 2 mps 751 mmHg 83%
    21:00 +8°C° 0 mm 2 mps 752 mmHg 84%
    22:00 +8°C° 0 mm 2 mps 752 mmHg 84%
    23:00 +8°C° 0 mm 2 mps 752 mmHg 86%

    25 October, Friday

    Time Temperature Precipitation Wind Pressure Humidity
    00:00 +8°C° 0 mm 2 mps 752 mmHg 87%
    01:00 +7°C° 0 mm 2 mps 752 mmHg 88%
    02:00 +7°C° 0 mm 2 mps 752 mmHg 87%
    03:00 +7°C° 0 mm 2 mps 752 mmHg 86%
    04:00 +6°C° 0 mm 2 mps 752 mmHg 86%
    05:00 +6°C° 0 mm 2 mps 752 mmHg 86%
    06:00 +7°C° 0 mm 2 mps 752 mmHg 86%
    07:00 +7°C° 0 mm 2 mps 752 mmHg 86%
    08:00 +7°C° 0 mm 2 mps 752 mmHg 85%
    09:00 +8°C° 0 mm 3 mps 752 mmHg 84%
    10:00 +8°C° 0 mm 3 mps 752 mmHg 83%
    11:00 +8°C° 0 mm 4 mps 752 mmHg 78%
    12:00 +10°C° 0 mm 4 mps 752 mmHg 74%
    13:00 +10°C° 0 mm 5 mps 752 mmHg 69%
    14:00 +10°C° 0 mm 5 mps 752 mmHg 71%
    15:00 +10°C° 0 mm 4 mps 752 mmHg 73%
    16:00 +10°C° 0 mm 4 mps 752 mmHg 75%
    17:00 +8°C° 0 mm 4 mps 752 mmHg 80%
    18:00 +7°C° 0 mm 4 mps 752 mmHg 85%
    19:00 +7°C° 0 mm 3 mps 752 mmHg 90%
    20:00 +7°C° 0 mm 3 mps 752 mmHg 91%
    21:00 +7°C° 0 mm 3 mps 753 mmHg 92%
    22:00 +5°C° 0 mm 3 mps 753 mmHg 94%
    23:00 +5°C° 0 mm 3 mps 753 mmHg 94%

    26 October, Saturday

    Time Temperature Precipitation Wind Pressure Humidity
    00:00 +6°C° 0 mm 2 mps 753 mmHg 94%
    01:00 +6°C° 0 mm 2 mps 753 mmHg 95%
    02:00 +5°C° 0 mm 2 mps 753 mmHg 95%
    03:00 +5°C° 0 mm 2 mps 753 mmHg 95%
    04:00 +5°C° 0 mm 2 mps 754 mmHg 95%
    05:00 +5°C° 0 mm 2 mps 754 mmHg 95%
    06:00 +4°C° 0 mm 2 mps 754 mmHg 95%
    07:00 +4°C° 0 mm 2 mps 753 mmHg 95%
    08:00 +4°C° 0 mm 3 mps 753 mmHg 92%
    09:00 +5°C° 0 mm 3 mps 753 mmHg 89%
    10:00 +6°C° 0 mm 4 mps 753 mmHg 85%
    11:00 +7°C° 0 mm 5 mps 753 mmHg 82%
    12:00 +8°C° 0 mm 5 mps 753 mmHg 79%
    13:00 +9°C° 0 mm 6 mps 752 mmHg 76%
    14:00 +9°C° 0 mm 6 mps 752 mmHg 77%
    15:00 +9°C° 0 mm 6 mps 751 mmHg 79%
    16:00 +10°C° 0 mm 6 mps 750 mmHg 80%
    17:00 +10°C° 0 mm 7 mps 750 mmHg 82%
    18:00 +10°C° 0 mm 8 mps 749 mmHg 83%
    19:00 +10°C° 0 mm 8 mps 749 mmHg 84%
    20:00 +10°C° 0 mm 8 mps 748 mmHg 83%
    21:00 +10°C° 0 mm 8 mps 748 mmHg 83%
    22:00 +10°C° 0 mm 8 mps 748 mmHg 82%
    23:00 +10°C° 0 mm 8 mps 748 mmHg 83%

    27 October, Sunday

    Time Temperature Precipitation Wind Pressure Humidity
    00:00 +10°C° 0 mm 7 mps 748 mmHg 84%
    01:00 +10°C° 0 mm 7 mps 748 mmHg 84%
    02:00 +10°C° 0 mm 6 mps 748 mmHg 85%
    03:00 +9°C° 0 mm 6 mps 748 mmHg 86%
    04:00 +9°C° 0 mm 5 mps 748 mmHg 86%
    05:00 +9°C° 0 mm 5 mps 748 mmHg 87%
    06:00 +10°C° 0 mm 4 mps 748 mmHg 88%
    07:00 +8°C° 0 mm 4 mps 748 mmHg 89%
    08:00 +9°C° 0 mm 5 mps 748 mmHg 87%
    09:00 +9°C° 0 mm 5 mps 748 mmHg 85%
    10:00 +9°C° 0 mm 6 mps 747 mmHg 82%
    11:00 +10°C° 0 mm 6 mps 747 mmHg 82%
    12:00 +10°C° 0 mm 7 mps 747 mmHg 81%
    13:00 +10°C° 0 mm 7 mps 747 mmHg 81%
    14:00 +10°C° 0 mm 7 mps 746 mmHg 80%
    15:00 +11°C° 0 mm 8 mps 746 mmHg 79%
    16:00 +11°C° 0 mm 8 mps 745 mmHg 78%
    17:00 +11°C° 0 mm 8 mps 745 mmHg 77%
    18:00 +10°C° 0 mm 8 mps 745 mmHg 76%
    19:00 +10°C° 0 mm 8 mps 745 mmHg 76%
    20:00 +10°C° 0 mm 7 mps 745 mmHg 77%
    21:00 +10°C° 0 mm 7 mps 744 mmHg 79%
    22:00 +9°C° 0 mm 7 mps 744 mmHg 80%
    23:00 +9°C° 0 mm 7 mps 744 mmHg 81%
    Show more